Content
SEND FEEDBACK

Daily
Averages
Monthly
Summary
France

ANNEMASSE, FRANCE


Home > Europe > France
Elevation: 1329 feet     Latitude: 46 12N     Longitude: 006 12E

WEATHER
 
SELECT A DAY
Number of Records: 305,659;   Date Range: 7/1/96 - 7/26/14
 
SHARE

PRINT THIS DATA

[ ← Previous Day ]
WEATHER ALMANAC - MAY 10, 2013
[ Next Day → ]
[ °C ]   °F
Weather ElementAverageHighLow
Temperature55.1 °F59 °F (5:20 pm)50 °F (9:50 pm)
Dewpoint46.3 °F55.4 °F (12:20 am)37 °F (8:00 pm)
Humidity72.2 %100 % (12:20 am)35 % (8:00 pm)
Barometer30.04 in30.11 in (10:00 pm)29.97 in (2:00 am)
Wind Speed3.4 mph6.9 mph (12:50 pm)
Weather ElementAverage
Visibility7.4 mi
Wind DirectionSE (130.6 °)

Weather ElementTotal
Precipitation---
Heating Degree Days10.5 (Base 65)
Growing Degree Days4.5 (Base 50)
Averaged from 64 records on May 10, 2013
WEATHER CONDITIONS BREAKOUT
WIND DIRECTION BREAKOUT
WEATHER BY HOUR - MAY 10, 2013
[ °C ]   °F
Local TimeTemperatureDewpointHumidityBarometerVisibilityWind DirectionWind SpeedGust SpeedPrecipitationEventsConditions
12:20 AM55.4 °F55.4 °F100 %29.98 in5.0 miSW (220°)1.2 mphRainRain
12:50 AM55.4 °F53.6 °F94 %29.98 in6.2 miSW (220°)3.5 mphRainLight Rain
1:00 AM56.0 °F54.0 °F90 %29.98 inWest (260°)3.5 mph
1:20 AM55.4 °F53.6 °F94 %29.98 in6.2 miVariable2.3 mphRainLight Rain
1:50 AM55.4 °F53.6 °F94 %29.98 in6.2 miWSW (250°)1.2 mphRainLight Rain
2:00 AM56.0 °F54.0 °F90 %29.97 in7.0 miSW (230°)3.5 mphRainLight Rain
2:20 AM55.4 °F55.4 °F100 %29.98 in5.6 miVariable1.2 mphRainLight Rain
2:50 AM55.4 °F55.4 °F100 %29.98 in6.2 miCalmRainLight Rain
3:00 AM55.0 °F54.0 °F94 %29.97 inEast (90°)1.2 mph
3:50 AM55.4 °F53.6 °F94 %29.98 in5.6 miCalmRainLight Rain
4:00 AM55.0 °F53.0 °F92 %29.98 inWNW (290°)3.5 mph
4:20 AM53.6 °F50.0 °F88 %29.98 in4.3 miNorth (360°)3.5 mphRainRain
4:50 AM51.8 °F50.0 °F94 %29.98 in6.2 miCalmRainLight Rain
5:20 AM51.8 °F50.0 °F94 %29.98 in6.2 miCalmRainLight Rain
5:50 AM51.8 °F51.8 °F100 %30.01 in6.2 miCalmRainLight Rain
6:20 AM51.8 °F51.8 °F100 %30.01 in6.2 miCalmRainLight Rain
6:50 AM51.8 °F51.8 °F100 %30.01 in6.2 miCalmRainLight Rain
7:20 AM53.6 °F51.8 °F94 %30.04 in6.2 miVariable1.2 mphRainLight Rain
7:50 AM53.6 °F51.8 °F94 %30.04 in6.2 miVariable1.2 mphMostly Cloudy
8:00 AM54.0 °F50.0 °F83 %30.05 in19.0 miNNW (330°)2.3 mphRainLight Rain
8:20 AM53.6 °F53.6 °F100 %30.04 in6.2 miVariable2.3 mphMostly Cloudy
8:50 AM53.6 °F50.0 °F88 %30.04 in6.2 miNorth (350°)4.6 mphMostly Cloudy
9:00 AM53.0 °F49.0 °F83 %30.06 inNNE (30°)4.6 mph
9:20 AM53.6 °F50.0 °F88 %30.04 in6.2 miVariable3.5 mphMostly Cloudy
9:50 AM55.4 °F50.0 °F82 %30.04 in6.2 miCalmMostly Cloudy
10:00 AM55.0 °F47.0 °F66 %30.05 inNE (50°)2.3 mph
10:20 AM57.2 °F46.4 °F67 %30.06 in6.2 miVariable1.2 mphMostly Cloudy
10:50 AM57.2 °F46.4 °F67 %30.06 in6.2 miVariable3.5 mphMostly Cloudy
11:20 AM55.4 °F48.2 °F77 %30.06 in6.2 miVariable1.2 mphMostly Cloudy
11:50 AM57.2 °F46.4 °F67 %30.06 in6.2 miVariable2.3 mphMostly Cloudy
12:00 PM56.0 °F44.0 °F55 %30.06 inNorth4.6 mph
12:20 PM57.2 °F46.4 °F67 %30.06 in6.2 miVariable3.5 mphMostly Cloudy
12:50 PM57.2 °F46.4 °F67 %30.06 in6.2 miNorth (360°)6.9 mphMostly Cloudy
1:00 PM57.0 °F43.0 °F49 %30.07 inNorth (350°)5.8 mph
1:20 PM57.2 °F44.6 °F63 %30.06 in6.2 miNorth (350°)5.8 mphMostly Cloudy
1:50 PM57.2 °F46.4 °F67 %30.06 in6.2 miNorth (350°)5.8 mphMostly Cloudy
2:00 PM56.0 °F43.0 °F52 %30.08 in31.0 miNorth (350°)5.8 mphPartly Cloudy
2:20 PM55.4 °F44.6 °F67 %30.06 in6.2 miNorth (350°)6.9 mphMostly Cloudy
2:50 PM55.4 °F44.6 °F67 %30.06 in6.2 miNorth (10°)4.6 mphMostly Cloudy
3:00 PM56.0 °F43.0 °F52 %30.08 inNorth (10°)5.8 mph
3:20 PM57.2 °F44.6 °F63 %30.09 in6.2 miNorth (10°)6.9 mphMostly Cloudy
3:50 PM57.2 °F42.8 °F59 %30.09 in6.2 miVariable5.8 mphMostly Cloudy
4:00 PM57.0 °F42.0 °F47 %30.08 inNorth (350°)5.8 mph
4:20 PM57.2 °F42.8 °F59 %30.06 in6.2 miNNW (340°)5.8 mphMostly Cloudy
4:50 PM57.2 °F41.0 °F55 %30.06 in6.2 miNorth (360°)6.9 mphMostly Cloudy
5:20 PM59.0 °F41.0 °F51 %30.06 in6.2 miNorth (10°)5.8 mphMostly Cloudy
5:50 PM59.0 °F41.0 °F51 %30.06 in6.2 miVariable3.5 mphMostly Cloudy
6:00 PM59.0 °F40.0 °F37 %30.07 inNorth (350°)4.6 mph
6:20 PM59.0 °F39.2 °F48 %30.06 in6.2 miNorth (350°)4.6 mphMostly Cloudy
6:50 PM57.2 °F41.0 °F55 %30.06 in6.2 miVariable4.6 mphMostly Cloudy
7:00 PM57.0 °F38.0 °F37 %30.07 inNNW (330°)4.6 mph
7:20 PM59.0 °F39.2 °F48 %30.06 in6.2 miNNW (330°)5.8 mphMostly Cloudy
7:50 PM57.2 °F39.2 °F51 %30.06 in6.2 miNW (320°)4.6 mphMostly Cloudy
8:00 PM57.0 °F37.0 °F35 %30.07 in31.0 miNNW (330°)4.6 mphMostly Cloudy
8:20 PM55.4 °F39.2 °F54 %30.06 in6.2 miVariable4.6 mphScattered Clouds
8:50 PM53.6 °F41.0 °F62 %30.06 in6.2 miVariable3.5 mphScattered Clouds
9:00 PM52.0 °F41.0 °F57 %30.09 inNNE (30°)3.5 mph
9:20 PM51.8 °F39.2 °F62 %30.09 in6.2 miVariable1.2 mphScattered Clouds
9:50 PM50.0 °F42.8 °F76 %30.09 in6.2 miVariable2.3 mphScattered Clouds
10:00 PM51.0 °F41.0 °F59 %30.11 inENE (60°)4.6 mph
10:20 PM51.8 °F41.0 °F67 %30.09 in6.2 miNNE (30°)4.6 mphMostly Cloudy
10:50 PM51.8 °F41.0 °F67 %30.09 in6.2 miNorth (350°)3.5 mphMostly Cloudy
11:20 PM51.8 °F41.0 °F67 %30.09 in6.2 miVariable2.3 mphMostly Cloudy
11:50 PM50.0 °F41.0 °F71 %30.09 in6.2 miVariable2.3 mphMostly Cloudy
Hourly data recorded from LSGG, located miles away from Annemasse, France







STORIES FROM OUR PARTNERS